This demonstration page uses our WeatherBlox Daily Observations layout. Learn more.

Left ArrowRight Arrow

53.62937, 11.41316

Hourly Observations for February 22, 2018

Temp ( °F °C ) Dew Point ( °F °C ) Humidity (%) Winds ( mph kmh ) Pressure ( in mb ) Visibility ( mi km ) Precip ( " mm )
7:50 am 07:50 Partly Cloudy 25 -4 23 -5 93 93 ESE 1 2 30.36 1028 4 6 N/A
8:20 am 08:20 Mostly Sunny 25 -4 23 -5 93 93 VRB 2 4 30.36 1028 4 7 N/A
8:50 am 08:50 Mostly Cloudy 25 -4 23 -5 93 93 NW 2 4 30.36 1028 4 7 N/A
9:20 am 09:20 Mostly Cloudy with Mist and Fog 28 -2 27 -3 93 93 VRB 1 2 30.36 1028 3 5 N/A
9:50 am 09:50 Mostly Cloudy 30 -1 28 -2 93 93 VRB 2 4 30.36 1028 4 6 N/A
10:20 am 10:20 Mostly Cloudy 32 0 30 -1 93 93 VRB 1 2 30.36 1028 5 8 N/A
10:50 am 10:50 Cloudy 34 1 30 -1 87 87 VRB 2 4 30.36 1028 6 9 N/A
11:20 am 11:20 Cloudy 34 1 30 -1 87 87 NNW 5 7 30.36 1028 6 9 N/A
11:50 am 11:50 Cloudy 34 1 30 -1 87 87 NNW 5 7 30.36 1028 5 8 N/A
12:20 pm 12:20 Cloudy 34 1 30 -1 87 87 N 3 6 30.36 1028 6 9 N/A
12:50 pm 12:50 Cloudy 36 2 30 -1 81 81 NNW 5 7 30.33 1027 30 48 N/A
1:20 pm 13:20 Cloudy 36 2 30 -1 81 81 NNW 5 7 30.30 1026 30 48 N/A
1:50 pm 13:50 Cloudy 36 2 30 -1 81 81 NNW 6 9 30.30 1026 30 48 N/A
2:20 pm 14:20 Cloudy 36 2 30 -1 81 81 NNW 6 9 30.30 1026 30 48 N/A
2:50 pm 14:50 Cloudy 36 2 30 -1 81 81 WNW 5 7 30.30 1026 30 48 N/A
3:20 pm 15:20 Cloudy with Light Rain 34 1 30 -1 87 87 NNW 6 9 30.33 1027 30 48 N/A
3:50 pm 15:50 Cloudy 34 1 30 -1 87 87 NNW 7 11 30.27 1025 30 48 N/A
4:20 pm 16:20 Cloudy 34 1 30 -1 87 87 NNW 6 9 30.27 1025 30 48 N/A
4:50 pm 16:50 Mostly Cloudy 34 1 30 -1 87 87 NNE 5 7 30.27 1025 30 48 N/A
5:20 pm 17:20 Mostly Cloudy 32 0 28 -2 87 87 N 3 6 30.30 1026 30 48 N/A
5:50 pm 17:50 Mostly Cloudy 32 0 28 -2 87 87 N 3 6 30.30 1026 30 48 N/A

Powered by AerisWeather